Miscellaneous Local Product
Issued by NWS Hastings, NE

Home | Current Version | Previous Version | Graphics & Text | Print | Product List | Glossary On
Versions: 1 2 3 4 5 6 7 8 9 10 11 12 13 14 15 16 17 18 19 20 21 22 23 24 25 26 27 28 29 30 31 32 33 34 35 36 37 38 39 40 41 42 43 44 45 46 47 48 49 50
000
AXUS43 KGID 031002
MISGRI

GID CWA HOURLY WEATHER ROUNDUP
NATIONAL WEATHER SERVICE HASTINGS NE
500 AM CDT SUN MAY 03 2015

NOTE: "FAIR" INDICATES FEW OR NO CLOUDS BELOW 12,000 FEET WITH NO
SIGNIFICANT WEATHER AND/OR OBSTRUCTIONS TO VISIBILITY.

...SOUTH CENTRAL NEBRASKA...

CITY           SKY/WX    TMP DP  RH WIND       PRES   REMARKS
GRAND ISLAND   FAIR      55  51  86 SE6       29.72F
HASTINGS       MOCLDY    61  51  70 SW6       29.72S
KEARNEY        MOCLDY    61  46  59 SW7       29.73S
ORD            PTCLDY    52  47  83 E3        29.70R
YORK           PTCLDY    63  54  72 SE13      29.75S
AURORA         PTCLDY    59  53  82 SE10      29.73S
LEXINGTON      PTCLDY    49  44  83 NW3       29.75S
HOLDREGE       MOCLDY    61  45  55 SW8       29.76R
HEBRON         MOCLDY    63  52  69 E6        29.74R

...NEBRASKA PANHANDLE...

CITY           SKY/WX    TMP DP  RH WIND       PRES   REMARKS
CHADRON        MOCLDY    46  39  76 SW5       29.77R
ALLIANCE       PTCLDY    43  40  89 W9        29.78S
SCOTTSBLUFF    MOCLDY    54  41  61 CALM      29.81S
SIDNEY         CLEAR     52  42  69 W12       29.84F

...WESTERN AND NORTH CENTRAL NEBRASKA...

CITY           SKY/WX    TMP DP  RH WIND       PRES   REMARKS
VALENTINE      PTCLDY    43  38  82 W6        29.70S
AINSWORTH      MOCLDY    50  44  78 CALM      29.70S
ONEILL         PTCLDY    58  54  87 SE9       29.69F
BROKEN BOW     PTCLDY    53  41  63 SW5       29.72R
IMPERIAL       CLEAR     51  42  71 W8        29.79S
NORTH PLATTE   PTCLDY    51  45  79 SW3       29.77R
MCCOOK         MOCLDY    56  45  66 W6        29.77S

...EASTERN NEBRASKA...

CITY           SKY/WX    TMP DP  RH WIND       PRES   REMARKS
NORFOLK        CLEAR     62  52  69 SE10      29.73S
SO SIOUX CITY  PTCLDY    59  49  69 S10       29.71R
TEKAMAH        PTCLDY    58  54  86 S7        29.73S
COLUMBUS       CLEAR     63  50  63 SE14G20   29.75F
ALBION         PTCLDY    58  53  82 SE9       29.72R
OMAHA EPPLEY   MOCLDY    60  57  89 S13       29.77F
OFFUTT AFB     PTCLDY    59  57  91 SE7       29.77F
MILLARD        PTCLDY    60  56  87 S5        29.78S
LINCOLN        CLEAR     62  54  74 SE15      29.78F
NEBRASKA CITY  PTCLDY    59  53  80 E5        29.82F
BEATRICE       PTCLDY    62  53  73 SE6       29.78F
FALLS CITY     MOCLDY    59  53  80 E8        29.82F

...NORTHERN KANSAS...

CITY           SKY/WX    TMP DP  RH WIND       PRES   REMARKS
GOODLAND       MOCLDY    54  45  71 W9        29.82S
HILL CITY      CLOUDY    58  48  69 NW3       29.75S
NORTON         SUNNY     57  43  58 NW9       29.75S
PHILLIPSBURG   CLEAR     63  52  67 W7        29.74S
SMITH CENTER   CLEAR     57  48  72 CALM      29.74R
BELOIT         CLEAR     63  54  72 S8        29.73S
HAYS           CLOUDY    61  48  63 CALM      29.78S
RUSSELL        CLOUDY    63  53  70 S13       29.75S
CONCORDIA      MOCLDY    64  54  69 S14       29.75R
SALINA         CLOUDY    66  55  67 S13G22    29.76S
TOPEKA         LGT RAIN  64  57  78 S7        29.87R



USA.gov is the U.S. government's official web portal to all federal, state and local government web resources and services.